Weather History for KGSH - March, 2014

Change the Weather History Date:

Sunday, March 2, 2014

  Actual Average Record
Temperature  
Mean Temperature 14 °F -  
Max Temperature 19 °F 43 °F 65 °F (1992)
Min Temperature 9 °F 24 °F -4 °F (1963)
Degree Days  
Heating Degree Days 50    
Moisture  
Dew Point 9 °F    
Average Humidity 76    
Maximum Humidity 84    
Minimum Humidity 55    
Precipitation  
Precipitation 0.04 in - - ()
Sea Level Pressure  
Sea Level Pressure 30.29 in    
Wind  
Wind Speed 9 mph (North)    
Max Wind Speed 18 mph    
Max Gust Speed -    
Visibility 5 miles    
Events Snow    
Averages and records for this station are not official NWS values.
T = Trace of Precipitation, MM = Missing Value Source: NWS Daily Summary

Daily Weather History Graph

Daily Weather History Graph

Search for Another Location

Airport or City:

Trip Planner

Search our weather history database for the weather conditions in past years. The results will help you decide how hot, cold, wet, or windy it might be!

Date:

Astronomy

Mar. 02, 2014 Rise Set
Actual Time 7:16 AM EST 6:34 PM EST
Civil Twilight 6:48 AM EST 7:02 PM EST
Nautical Twilight 6:16 AM EST 7:34 PM EST
Astronomical Twilight 5:44 AM EST 8:07 PM EST
Moon 7:45 AM EST (3/2) 8:32 PM EST (3/2)
Length of Visible Light 12h 14m
Length of Day
11h 18m
Waxing Crescent, 3% of the Moon is Illuminated
Mar 2
Waxing Crescent
Mar 8
First Quarter
Mar 16
Full
Mar 23
Last Quarter
Mar 30
New

Hourly Weather History & Observations

Time (EST) Temp. Windchill Dew Point Humidity Pressure Visibility Wind Dir Wind Speed Gust Speed Precip Events Conditions
12:53 AM 17.1 °F 4.3 °F 12.0 °F 81% 30.27 in 6.0 mi North 11.5 mph - 0.00 in Snow Light Snow
1:42 AM 17.1 °F 5.8 °F 12.0 °F 81% 30.26 in 1.8 mi North 9.2 mph - 0.00 in Snow Light Snow
1:51 AM 17.6 °F 6.4 °F 12.2 °F 79% 30.26 in 0.8 mi North 9.2 mph - 0.00 in Snow Light Snow
1:53 AM 17.1 °F 5.8 °F 12.0 °F 81% 30.30 in 0.8 mi North 9.2 mph - 0.00 in Snow Light Snow
2:17 AM 16.0 °F 8.8 °F 12.0 °F 84% 30.27 in 1.0 mi North 4.6 mph - 0.01 in Snow Light Snow
2:53 AM 15.1 °F -0.1 °F 10.9 °F 84% 30.32 in 1.0 mi North 15.0 mph - 0.01 in Snow Light Snow
3:14 AM 15.1 °F 1.8 °F 10.0 °F 80% 30.26 in 2.0 mi North 11.5 mph - 0.00 in Snow Light Snow
3:21 AM 15.1 °F 0.5 °F 10.0 °F 80% 30.25 in 2.0 mi North 13.8 mph - 0.00 in Snow Light Snow
3:53 AM 15.1 °F 2.5 °F 10.0 °F 80% 30.28 in 3.0 mi North 10.4 mph - 0.00 in Snow Light Snow
4:03 AM 15.1 °F 2.5 °F 10.0 °F 80% 30.25 in 2.0 mi NNE 10.4 mph - 0.00 in Snow Light Snow
4:09 AM 15.1 °F 3.3 °F 10.0 °F 80% 30.25 in 1.5 mi North 9.2 mph - 0.00 in Snow Light Snow
4:31 AM 14.0 °F 2.9 °F 10.0 °F 84% 30.26 in 0.8 mi North 8.1 mph - 0.01 in Snow Light Snow
4:41 AM 14.0 °F 2.9 °F 10.0 °F 84% 30.25 in 0.8 mi NNE 8.1 mph - 0.01 in Snow Light Snow
4:53 AM 14.0 °F 3.9 °F 10.0 °F 84% 30.29 in 1.0 mi NNE 6.9 mph - 0.01 in Snow Light Snow
5:00 AM 14.0 °F 3.9 °F 10.0 °F 84% 30.24 in 1.0 mi NNE 6.9 mph - 0.00 in Snow Light Snow
5:21 AM 14.0 °F 5.1 °F 10.0 °F 84% 30.25 in 2.0 mi NNE 5.8 mph - 0.01 in Snow Light Snow
5:42 AM 14.0 °F 3.9 °F 10.0 °F 84% 30.26 in 1.5 mi North 6.9 mph - 0.01 in Snow Light Snow
5:53 AM 14.0 °F 6.5 °F 10.0 °F 84% 30.31 in 1.0 mi NNE 4.6 mph - 0.01 in Snow Light Snow
6:14 AM 14.0 °F 5.1 °F 10.0 °F 84% 30.26 in 2.0 mi North 5.8 mph - 0.00 in Snow Light Snow
6:30 AM 14.0 °F 2.9 °F 10.0 °F 84% 30.27 in 1.5 mi North 8.1 mph - 0.00 in Snow Light Snow
6:37 AM 14.0 °F 3.9 °F 10.0 °F 84% 30.27 in 1.2 mi North 6.9 mph - 0.01 in Snow Light Snow
6:53 AM 14.0 °F 3.9 °F 10.0 °F 84% 30.30 in 1.5 mi NNE 6.9 mph - 0.01 in Snow Light Snow
7:02 AM 14.0 °F 3.9 °F 10.0 °F 84% 30.26 in 2.0 mi North 6.9 mph - 0.00 in Snow Light Snow
7:37 AM 14.0 °F 2.9 °F 10.0 °F 84% 30.26 in 1.5 mi NNE 8.1 mph - 0.00 in Snow Light Snow
7:45 AM 14.0 °F 2.0 °F 9.0 °F 80% 30.25 in 1.2 mi NNE 9.2 mph - 0.00 in Snow Light Snow
7:53 AM 14.0 °F 2.9 °F 10.0 °F 84% 30.30 in 1.2 mi NNE 8.1 mph - 0.00 in Snow Light Snow
8:02 AM 14.0 °F 2.9 °F 10.0 °F 84% 30.26 in 3.0 mi NNE 8.1 mph - 0.00 in Snow Light Snow
8:17 AM 14.0 °F 2.9 °F 9.0 °F 80% 30.26 in 9.0 mi NNE 8.1 mph - 0.00 in   Scattered Clouds
8:53 AM 14.0 °F 1.2 °F 8.1 °F 77% 30.33 in 10.0 mi NNE 10.4 mph - 0.00 in   Clear
9:53 AM 15.1 °F 3.3 °F 8.1 °F 74% 30.33 in 10.0 mi North 9.2 mph - N/A   Overcast
10:53 AM 16.0 °F 8.8 °F 9.0 °F 74% 30.32 in 10.0 mi North 4.6 mph - N/A   Overcast
11:53 AM 17.1 °F 8.7 °F 8.1 °F 68% 30.34 in 10.0 mi NNE 5.8 mph - N/A   Overcast
12:53 PM 18.0 °F 11.1 °F 8.1 °F 65% 30.31 in 10.0 mi NNE 4.6 mph - N/A   Overcast
1:53 PM 19.9 °F 10.1 °F 6.1 °F 55% 30.30 in 10.0 mi North 8.1 mph - N/A   Overcast
2:53 PM 19.9 °F 11.1 °F 8.1 °F 60% 30.28 in 10.0 mi North 6.9 mph - N/A   Overcast
3:53 PM 19.9 °F 10.1 °F 7.0 °F 57% 30.27 in 10.0 mi NNW 8.1 mph - N/A   Overcast
4:53 PM 19.9 °F 9.3 °F 7.0 °F 57% 30.30 in 10.0 mi NW 9.2 mph - N/A   Overcast
5:53 PM 19.0 °F 9.0 °F 9.0 °F 65% 30.28 in 10.0 mi NW 8.1 mph - N/A   Overcast
6:33 PM 16.0 °F 2.3 °F 8.1 °F 71% 30.26 in 10.0 mi NNW 12.7 mph - 0.00 in   Mostly Cloudy
6:53 PM 15.1 °F 1.1 °F 7.0 °F 70% 30.32 in 10.0 mi NW 12.7 mph - 0.00 in   Mostly Cloudy
7:53 PM 12.9 °F -2.8 °F 5.0 °F 71% 30.33 in 10.0 mi NNW 15.0 mph - N/A   Overcast
8:45 PM 12.9 °F -0.9 °F 5.0 °F 71% 30.30 in 10.0 mi NNW 11.5 mph - N/A   Overcast
8:53 PM 12.0 °F -4.0 °F 3.9 °F 70% 30.36 in 10.0 mi NNW 15.0 mph - N/A   Overcast
9:53 PM 10.9 °F -7.0 °F 1.9 °F 67% 30.35 in 10.0 mi North 18.4 mph - N/A   Overcast
10:53 PM 10.9 °F -5.9 °F -0.0 °F 61% 30.39 in 10.0 mi NNW 16.1 mph - N/A   Overcast
11:53 PM 9.0 °F -6.6 °F -0.0 °F 67% 30.39 in 10.0 mi North 12.7 mph - N/A   Overcast